Location: Perryvale
(54.4667°N, 113.3833°W)
Time: 00:12:07
(UTC+00:00)

SR - Pass Details

Date: 22 May 2024
Orbit: 580 x 858 km, 66.7° (Epoch: 13 June)

Event Time Altitude Azimuth Distance (km) Brightness Sun altitude
Rises 05:44:07 0° 295° (WNW) 3,052 ? -11.7°
Reaches altitude 10° 05:47:13 10° 315° (NW) 2,080 ? -11.9°
Maximum altitude 05:50:24 18° 358° (N) 1,577 ? -12.0°
Drops below altitude 10° 05:53:27 10° 41° (NE) 1,983 ? -12.2°
Sets 05:56:19 0° 61° (ENE) 2,853 ? -12.4°
